Weather History for Oskaloosa, IA

Change the Weather History Date:

Wednesday, February 19, 2014

  Actual Average (KOTM) Record (KOTM)
Temperature  
Mean Temperature 36 °F 28 °F  
Max Temperature 45 °F 38 °F 72 °F (1930)
Min Temperature 28 °F 19 °F -23 °F (1936)
Degree Days  
Heating Degree Days 28 37  
Month to date heating degree days 749  
Since 1 July heating degree days 4571  
Cooling Degree Days 0 0  
Month to date cooling degree days 0  
Year to date cooling degree days 0  
Moisture  
Dew Point 31 °F    
Average Humidity 84    
Maximum Humidity 98    
Minimum Humidity 56    
Precipitation  
Precipitation 0.02 in 0.05 in 0.63 in (1994)
Month to date precipitation 0.73  
Year to date precipitation 1.63  
Sea Level Pressure  
Sea Level Pressure 29.88 in    
Wind  
Wind Speed 8 mph (SSW)    
Max Wind Speed 14 mph    
Max Gust Speed -    
Visibility 10 miles    
Events Rain    
T = Trace of Precipitation, MM = Missing Value Source: NWS Daily Summary

Daily Weather History Graph

Daily Weather History Graph

Search for Another Location

Airport:

Trip Planner

Search our weather history database for the weather conditions in past years. The results will help you decide how hot, cold, wet, or windy it might be!

Date:

Astronomy

Feb. 19, 2014 Rise Set
Actual Time 6:59 AM CST 5:49 PM CST
Civil Twilight 6:31 AM CST 6:17 PM CST
Nautical Twilight 5:58 AM CST 6:49 PM CST
Astronomical Twilight 5:27 AM CST 7:21 PM CST
Moon 10:46 PM CST (2/19) 9:02 AM CST (2/19)
Length of Visible Light 11h 46m
Length of Day
10h 49m
Waning Gibbous, 79% of the Moon is Illuminated
Feb 19
Waning Gibbous
Feb 22
Last Quarter
Mar 1
New
Mar 8
First Quarter
Mar 16
Full

Hourly Weather History & Observations

Time (CST) Temp. Windchill Dew Point Humidity Pressure Visibility Wind Dir Wind Speed Gust Speed Precip Events Conditions
12:15 AM 34.7 °F 26.4 °F 31.1 °F 87% 29.83 in 10.0 mi WNW 11.5 mph - N/A   Clear
12:35 AM 34.2 °F 26.8 °F 31.1 °F 89% 29.85 in 10.0 mi West 9.2 mph - N/A   Clear
12:55 AM 33.4 °F 24.8 °F 31.1 °F 91% 29.85 in 10.0 mi West 11.5 mph - N/A   Clear
1:15 AM 33.6 °F 25.6 °F 31.1 °F 90% 29.85 in 10.0 mi WNW 10.4 mph - N/A   Clear
1:35 AM 33.8 °F 25.3 °F 31.1 °F 90% 29.85 in 10.0 mi WNW 11.5 mph - N/A   Clear
1:55 AM 33.8 °F 25.3 °F 31.1 °F 90% 29.86 in 10.0 mi WNW 11.5 mph - N/A   Clear
2:15 AM 33.3 °F 24.6 °F 30.9 °F 91% 29.87 in 10.0 mi WNW 11.5 mph - N/A   Clear
2:35 AM 33.3 °F 25.1 °F 30.9 °F 91% 29.87 in 10.0 mi West 10.4 mph - N/A   Clear
2:55 AM 32.2 °F 24.4 °F 30.2 °F 92% 29.87 in 10.0 mi West 9.2 mph - N/A   Clear
3:15 AM 32.0 °F 24.2 °F 30.0 °F 92% 29.88 in 10.0 mi West 9.2 mph - N/A   Clear
3:35 AM 31.8 °F 24.6 °F 29.8 °F 92% 29.88 in 10.0 mi West 8.1 mph - N/A   Clear
3:55 AM 31.5 °F 24.2 °F 29.8 °F 94% 29.89 in 10.0 mi West 8.1 mph - N/A   Clear
4:15 AM 30.9 °F 23.5 °F 29.3 °F 94% 29.90 in 10.0 mi West 8.1 mph - N/A   Clear
4:35 AM 30.9 °F 23.5 °F 29.3 °F 94% 29.90 in 10.0 mi WNW 8.1 mph - N/A   Clear
4:55 AM 30.2 °F 23.4 °F 28.9 °F 95% 29.90 in 10.0 mi WNW 6.9 mph - N/A   Clear
5:15 AM 30.2 °F 22.6 °F 28.9 °F 95% 29.91 in 10.0 mi WNW 8.1 mph - N/A   Clear
5:35 AM 30.0 °F 23.2 °F 28.4 °F 94% 29.90 in 10.0 mi NW 6.9 mph - N/A   Clear
5:55 AM 29.3 °F 21.5 °F 28.2 °F 96% 29.90 in 10.0 mi NW 8.1 mph - N/A   Clear
6:15 AM 28.8 °F 20.9 °F 27.5 °F 95% 29.90 in 10.0 mi WNW 8.1 mph - N/A   Clear
6:35 AM 28.0 °F 20.0 °F 27.1 °F 96% 29.92 in 10.0 mi West 8.1 mph - N/A   Clear
6:55 AM 28.2 °F 23.1 °F 27.3 °F 96% 29.92 in 10.0 mi West 4.6 mph - N/A   Clear
7:15 AM 29.1 °F 22.1 °F 28.4 °F 97% 29.92 in 10.0 mi WNW 6.9 mph - N/A   Clear
7:35 AM 28.0 °F 22.8 °F 27.3 °F 97% 29.93 in 7.0 mi WNW 4.6 mph - N/A   Clear
7:55 AM 28.8 °F 23.7 °F 28.0 °F 97% 29.93 in 7.0 mi West 4.6 mph - N/A   Clear
8:15 AM 29.5 °F - 28.9 °F 98% 29.94 in 7.0 mi Calm Calm - N/A   Clear
8:35 AM 31.5 °F 24.9 °F 30.9 °F 98% 29.95 in 10.0 mi SW 6.9 mph - N/A   Clear
8:55 AM 32.9 °F 28.5 °F 32.0 °F 96% 29.95 in 10.0 mi West 4.6 mph - N/A   Clear
9:15 AM 34.2 °F 29.0 °F 32.0 °F 92% 29.96 in 10.0 mi WSW 5.8 mph - N/A   Clear
9:35 AM 35.2 °F 29.5 °F 32.2 °F 89% 29.97 in 10.0 mi WSW 6.9 mph - N/A   Clear
9:55 AM 36.0 °F 31.1 °F 32.2 °F 86% 29.97 in 10.0 mi West 5.8 mph - N/A   Clear
10:15 AM 36.7 °F 32.0 °F 32.2 °F 84% 29.97 in 10.0 mi West 5.8 mph - N/A   Clear
10:35 AM 37.4 °F - 32.5 °F 83% 29.97 in 10.0 mi Calm Calm - N/A   Clear
10:55 AM 38.3 °F - 32.9 °F 81% 29.96 in 10.0 mi Calm Calm - N/A   Clear
11:15 AM 39.2 °F - 33.4 °F 80% 29.96 in 10.0 mi Calm Calm - N/A   Clear
11:35 AM 40.1 °F - 33.4 °F 77% 29.97 in 10.0 mi Calm Calm - N/A   Clear
11:55 AM 41.0 °F 38.0 °F 32.7 °F 72% 29.97 in 10.0 mi SW 4.6 mph - N/A   Clear
12:15 PM 41.9 °F 39.0 °F 33.8 °F 73% 29.97 in 10.0 mi SSW 4.6 mph - N/A   Clear
12:35 PM 42.8 °F 39.3 °F 32.0 °F 66% 29.94 in 10.0 mi SSW 5.8 mph - N/A   Clear
12:55 PM 43.5 °F 40.1 °F 31.8 °F 63% 29.94 in 10.0 mi SSW 5.8 mph - N/A   Clear
1:15 PM 44.2 °F 41.0 °F 32.4 °F 63% 29.93 in 10.0 mi South 5.8 mph - N/A   Clear
1:35 PM 44.6 °F 41.4 °F 32.2 °F 62% 29.92 in 10.0 mi SSW 5.8 mph - N/A   Clear
1:55 PM 45.7 °F 41.0 °F 32.2 °F 59% 29.92 in 10.0 mi SSW 9.2 mph - N/A   Clear
2:15 PM 45.3 °F 41.6 °F 30.6 °F 56% 29.92 in 10.0 mi SW 6.9 mph - N/A   Clear
2:35 PM 44.6 °F 42.2 °F 32.4 °F 62% 29.91 in 10.0 mi SSW 4.6 mph - N/A   Clear
2:55 PM 44.6 °F 41.4 °F 33.3 °F 64% 29.90 in 10.0 mi SSW 5.8 mph - N/A   Clear
3:15 PM 43.2 °F 39.0 °F 34.2 °F 71% 29.89 in 10.0 mi South 6.9 mph - N/A   Clear
3:35 PM 42.8 °F 39.3 °F 34.2 °F 72% 29.89 in 10.0 mi SSE 5.8 mph - N/A   Scattered Clouds
3:55 PM 42.4 °F 38.1 °F 33.8 °F 71% 29.88 in 10.0 mi SE 6.9 mph - N/A   Scattered Clouds
4:15 PM 41.7 °F 36.7 °F 33.6 °F 73% 29.87 in 10.0 mi ESE 8.1 mph - N/A   Scattered Clouds
4:35 PM 40.6 °F 35.4 °F 33.3 °F 75% 29.85 in 10.0 mi ESE 8.1 mph - N/A   Scattered Clouds
4:55 PM 39.6 °F 33.5 °F 32.9 °F 77% 29.86 in 10.0 mi SE 9.2 mph - N/A   Mostly Cloudy
5:15 PM 38.3 °F 32.5 °F 32.9 °F 81% 29.86 in 10.0 mi SE 8.1 mph - N/A   Scattered Clouds
5:35 PM 37.6 °F 31.0 °F 32.2 °F 81% 29.85 in 10.0 mi SE 9.2 mph - N/A   Scattered Clouds
5:55 PM 37.9 °F 31.5 °F 32.0 °F 79% 29.85 in 10.0 mi SE 9.2 mph - N/A   Scattered Clouds
6:15 PM 37.8 °F 31.3 °F 31.8 °F 79% 29.83 in 10.0 mi SE 9.2 mph - N/A   Scattered Clouds
6:35 PM 37.0 °F 29.3 °F 32.0 °F 82% 29.82 in 10.0 mi SE 11.5 mph - N/A   Mostly Cloudy
6:55 PM 36.7 °F 28.9 °F 32.0 °F 83% 29.82 in 10.0 mi SE 11.5 mph - N/A   Scattered Clouds
7:15 PM 35.8 °F 30.1 °F 32.0 °F 86% 29.83 in 10.0 mi SSE 6.9 mph - N/A   Clear
7:35 PM 36.5 °F 29.7 °F 31.8 °F 83% 29.83 in 10.0 mi SSE 9.2 mph - N/A   Mostly Cloudy
7:55 PM 36.5 °F 29.7 °F 31.8 °F 83% 29.82 in 10.0 mi SE 9.2 mph - N/A   Overcast
8:15 PM 36.9 °F 28.2 °F 31.5 °F 81% 29.80 in 10.0 mi SE 13.8 mph - N/A   Overcast
8:35 PM 36.5 °F 28.7 °F 31.8 °F 83% 29.80 in 10.0 mi SE 11.5 mph - N/A   Overcast
8:55 PM 36.1 °F 28.7 °F 32.0 °F 85% 29.80 in 10.0 mi SE 10.4 mph - N/A   Overcast
9:15 PM 36.5 °F 29.2 °F 32.0 °F 84% 29.82 in 10.0 mi SSE 10.4 mph - N/A   Overcast
9:35 PM 36.5 °F 29.7 °F 32.0 °F 84% 29.82 in 10.0 mi SSE 9.2 mph - N/A Rain Light Rain
9:55 PM 36.3 °F 30.8 °F 32.0 °F 84% 29.81 in 10.0 mi SE 6.9 mph - N/A Rain Light Rain
10:10 PM 36.0 °F 30.3 °F 32.2 °F 86% 29.80 in 10.0 mi ESE 6.9 mph - N/A Rain Light Rain
10:35 PM 36.1 °F 29.3 °F 32.5 °F 87% 29.78 in 7.0 mi ESE 9.2 mph - 0.02 in Rain Rain
10:55 PM 36.0 °F 28.5 °F 32.9 °F 89% 29.76 in 10.0 mi ESE 10.4 mph - 0.02 in Rain Light Rain
11:15 PM 35.6 °F 28.6 °F 32.9 °F 90% 29.74 in 10.0 mi ESE 9.2 mph - N/A Rain Light Rain
11:35 PM 35.6 °F 28.6 °F 33.1 °F 91% 29.73 in 10.0 mi ESE 9.2 mph - N/A   Drizzle
11:55 PM 35.6 °F 29.2 °F 33.8 °F 93% 29.72 in 7.0 mi ESE 8.1 mph - N/A Rain Light Rain